UTA1225 UNNT-UNOO

Flight info

Callsign UTA1225
Flight time 1h 19m
Altitude 340
Route OGAMA A308 OSNAB G828 SZ B234 KOVEN
Aircraft B738/M-SDE2FGIRWZ/S

Departure

Time 2026-04-21 17:27
Airport Novosibirsk Tolmachevo Airport (UNNT)

Arrival

Time 2026-04-21 18:46
Airport Omsk Central Airport (UNOO)
Time Latitude Longitude Altitude Speed Heading
2026-04-21 17:07 55.01140 82.67019 372 ft 0 kts 171°
2026-04-21 17:21 55.01138 82.67019 372 ft 1 kts 171°
2026-04-21 17:21 55.01121 82.67024 372 ft 4 kts 171°
2026-04-21 17:21 55.01096 82.67012 372 ft 4 kts 226°
2026-04-21 17:22 55.01081 82.66957 372 ft 6 kts 256°
2026-04-21 17:22 55.01090 82.66872 372 ft 8 kts 293°
2026-04-21 17:22 55.01099 82.66779 372 ft 8 kts 269°
2026-04-21 17:22 55.01100 82.66688 372 ft 8 kts 297°
2026-04-21 17:23 55.01147 82.66651 372 ft 9 kts 353°
2026-04-21 17:23 55.01220 82.66632 372 ft 10 kts 351°
2026-04-21 17:23 55.01258 82.66622 372 ft 0 kts 352°
2026-04-21 17:25 55.01261 82.66622 372 ft 1 kts 352°
2026-04-21 17:25 55.01272 82.66619 372 ft 2 kts 352°
2026-04-21 17:25 55.01302 82.66611 372 ft 12 kts 351°
2026-04-21 17:26 55.01372 82.66533 374 ft 13 kts 286°
2026-04-21 17:26 55.01364 82.66383 373 ft 12 kts 262°
2026-04-21 17:26 55.01349 82.66224 371 ft 24 kts 260°
2026-04-21 17:26 55.01271 82.65361 372 ft 118 kts 261°
2026-04-21 17:27 55.01103 82.63488 494 ft 185 kts 262°
2026-04-21 17:27 55.00977 82.61190 1433 ft 204 kts 274°
2026-04-21 17:27 55.01337 82.58878 2746 ft 197 kts 296°
2026-04-21 17:27 55.01909 82.56730 3963 ft 196 kts 300°
2026-04-21 17:28 55.02665 82.54701 4920 ft 207 kts 308°
2026-04-21 17:28 55.03652 82.52725 5602 ft 229 kts 311°
2026-04-21 17:28 55.04816 82.50501 5956 ft 271 kts 311°
2026-04-21 17:28 55.06202 82.47847 6019 ft 321 kts 311°
2026-04-21 17:29 55.07807 82.44756 6022 ft 363 kts 311°
2026-04-21 17:29 55.09450 82.41578 6289 ft 338 kts 310°
2026-04-21 17:29 55.10966 82.38627 6552 ft 316 kts 310°
2026-04-21 17:29 55.12392 82.35835 6762 ft 301 kts 309°
2026-04-21 17:30 55.13755 82.33158 7631 ft 288 kts 309°
2026-04-21 17:30 55.15051 82.30612 9033 ft 273 kts 308°
2026-04-21 17:30 55.16284 82.28191 10290 ft 262 kts 308°
2026-04-21 17:30 55.17513 82.25766 10922 ft 274 kts 308°
2026-04-21 17:31 55.18835 82.23144 11101 ft 300 kts 308°
2026-04-21 17:31 55.20268 82.20309 11376 ft 320 kts 308°
2026-04-21 17:31 55.21639 82.17194 11993 ft 325 kts 298°
2026-04-21 17:31 55.22600 82.13618 12795 ft 325 kts 290°
2026-04-21 17:32 55.23129 82.11161 13350 ft 327 kts 289°
2026-04-21 17:32 55.24199 82.06127 14313 ft 332 kts 290°
2026-04-21 17:32 55.25100 82.02385 15017 ft 335 kts 293°
2026-04-21 17:32 55.26074 81.98718 15713 ft 337 kts 294°
2026-04-21 17:33 55.27072 81.94986 16451 ft 339 kts 294°
2026-04-21 17:33 55.28061 81.91205 17123 ft 343 kts 293°
2026-04-21 17:33 55.29039 81.87363 17774 ft 346 kts 293°
2026-04-21 17:33 55.30010 81.83467 18421 ft 350 kts 292°
2026-04-21 17:34 55.30977 81.79536 19004 ft 352 kts 292°
2026-04-21 17:34 55.31944 81.75577 19612 ft 354 kts 292°
2026-04-21 17:34 55.32914 81.71591 20206 ft 356 kts 292°
2026-04-21 17:34 55.33886 81.67584 20759 ft 358 kts 292°
2026-04-21 17:35 55.34869 81.63521 21197 ft 364 kts 292°
2026-04-21 17:35 55.35863 81.59411 21738 ft 367 kts 292°
2026-04-21 17:35 55.36862 81.55273 22333 ft 368 kts 292°
2026-04-21 17:35 55.37862 81.51123 22876 ft 370 kts 291°
2026-04-21 17:36 55.38867 81.46942 23396 ft 373 kts 291°
2026-04-21 17:36 55.39881 81.42728 23853 ft 375 kts 291°
2026-04-21 17:36 55.40900 81.38488 24300 ft 377 kts 291°
2026-04-21 17:36 55.41920 81.34241 24759 ft 378 kts 291°
2026-04-21 17:37 55.42943 81.29973 25195 ft 379 kts 291°
2026-04-21 17:37 55.43968 81.25689 25613 ft 381 kts 291°
2026-04-21 17:37 55.44649 81.22837 25880 ft 382 kts 291°
2026-04-21 17:37 55.46031 81.17037 26412 ft 384 kts 291°
2026-04-21 17:38 55.47023 81.12722 26858 ft 385 kts 289°
2026-04-21 17:38 55.47880 81.08253 27257 ft 385 kts 286°
2026-04-21 17:38 55.48610 81.03693 27569 ft 388 kts 283°
2026-04-21 17:38 55.49242 80.99040 27868 ft 391 kts 282°
2026-04-21 17:39 55.49798 80.94331 28217 ft 393 kts 281°
2026-04-21 17:39 55.50343 80.89602 28574 ft 394 kts 281°
2026-04-21 17:39 55.50912 80.84865 28928 ft 395 kts 282°
2026-04-21 17:39 55.51510 80.80129 29267 ft 397 kts 282°
2026-04-21 17:40 55.52132 80.75375 29688 ft 396 kts 282°
2026-04-21 17:40 55.52761 80.70665 30207 ft 393 kts 282°
2026-04-21 17:40 55.53393 80.65987 30681 ft 389 kts 282°
2026-04-21 17:40 55.54011 80.61414 31096 ft 387 kts 282°
2026-04-21 17:41 55.54633 80.56796 31466 ft 386 kts 282°
2026-04-21 17:41 55.55252 80.52188 31834 ft 385 kts 282°
2026-04-21 17:41 55.55865 80.47610 32218 ft 383 kts 282°
2026-04-21 17:41 55.56476 80.43025 32471 ft 384 kts 282°
2026-04-21 17:42 55.57087 80.38427 32770 ft 384 kts 282°
2026-04-21 17:42 55.57693 80.33846 33186 ft 382 kts 282°
2026-04-21 17:42 55.58295 80.29284 33505 ft 381 kts 282°
2026-04-21 17:42 55.58896 80.24718 33764 ft 382 kts 282°
2026-04-21 17:43 55.59498 80.20126 34023 ft 382 kts 282°
2026-04-21 17:43 55.60099 80.15528 34056 ft 386 kts 282°
2026-04-21 17:43 55.61308 80.06252 34070 ft 386 kts 282°
2026-04-21 17:44 55.62484 79.97076 34073 ft 380 kts 279°
2026-04-21 17:44 55.62604 79.87802 34070 ft 379 kts 263°
2026-04-21 17:45 55.61613 79.78679 34073 ft 381 kts 258°
2026-04-21 17:45 55.60125 79.69658 34073 ft 383 kts 255°
2026-04-21 17:46 55.58545 79.60644 34073 ft 385 kts 256°
2026-04-21 17:46 55.56982 79.51588 34067 ft 386 kts 256°
2026-04-21 17:47 55.55428 79.42493 34057 ft 387 kts 256°
2026-04-21 17:47 55.53870 79.33380 34046 ft 388 kts 255°
2026-04-21 17:48 55.52303 79.24250 34058 ft 389 kts 255°
2026-04-21 17:48 55.50724 79.15104 34055 ft 390 kts 255°
2026-04-21 17:49 55.49134 79.05947 34054 ft 390 kts 255°
2026-04-21 17:49 55.47537 78.96793 34049 ft 391 kts 255°
2026-04-21 17:50 55.45934 78.87646 34045 ft 390 kts 255°
2026-04-21 17:50 55.44326 78.78518 34027 ft 390 kts 255°
2026-04-21 17:51 55.42712 78.69404 34043 ft 389 kts 255°
2026-04-21 17:51 55.41367 78.61844 34044 ft 389 kts 255°
2026-04-21 17:52 55.39479 78.51281 34044 ft 389 kts 255°
2026-04-21 17:52 55.37851 78.42209 34043 ft 389 kts 255°
2026-04-21 17:53 55.36214 78.33140 34036 ft 389 kts 255°
2026-04-21 17:53 55.35236 78.25406 34029 ft 387 kts 266°
2026-04-21 17:54 55.35073 78.15959 34029 ft 387 kts 268°
2026-04-21 17:54 55.34617 78.06607 34036 ft 387 kts 263°
2026-04-21 17:55 55.33884 77.97234 34026 ft 387 kts 263°
2026-04-21 17:55 55.33223 77.87841 34026 ft 387 kts 264°
2026-04-21 17:56 55.32625 77.78431 34028 ft 387 kts 264°
2026-04-21 17:56 55.32044 77.69024 34019 ft 388 kts 264°
2026-04-21 17:57 55.31458 77.59612 34024 ft 388 kts 264°
2026-04-21 17:57 55.30864 77.50188 34017 ft 388 kts 264°
2026-04-21 17:58 55.30260 77.40755 34017 ft 389 kts 264°
2026-04-21 17:58 55.29649 77.31320 34013 ft 389 kts 264°
2026-04-21 17:59 55.29030 77.21878 34015 ft 389 kts 264°
2026-04-21 17:59 55.28408 77.12507 34008 ft 389 kts 264°
2026-04-21 18:00 55.27775 77.03075 34010 ft 389 kts 264°
2026-04-21 18:00 55.27135 76.93645 34013 ft 389 kts 264°
2026-04-21 18:01 55.26488 76.84211 34004 ft 389 kts 264°
2026-04-21 18:01 55.25834 76.74792 34002 ft 389 kts 263°
2026-04-21 18:02 55.25164 76.65371 33990 ft 389 kts 263°
2026-04-21 18:02 55.24484 76.55952 34000 ft 389 kts 263°
2026-04-21 18:03 55.23799 76.46537 33998 ft 389 kts 263°
2026-04-21 18:03 55.23108 76.37122 33990 ft 390 kts 263°
2026-04-21 18:04 55.22409 76.27706 33994 ft 390 kts 263°
2026-04-21 18:04 55.21707 76.18350 33991 ft 390 kts 263°
2026-04-21 18:05 55.20993 76.08933 33976 ft 390 kts 263°
2026-04-21 18:05 55.20272 75.99514 33884 ft 392 kts 263°
2026-04-21 18:06 55.19904 75.94751 33434 ft 393 kts 263°
2026-04-21 18:06 55.19538 75.90035 32914 ft 388 kts 263°
2026-04-21 18:06 55.19176 75.85396 32488 ft 383 kts 263°
2026-04-21 18:06 55.18816 75.80800 32040 ft 379 kts 263°
2026-04-21 18:07 55.18459 75.76264 31577 ft 375 kts 263°
2026-04-21 18:07 55.18104 75.71764 31141 ft 371 kts 263°
2026-04-21 18:07 55.17750 75.67311 30710 ft 368 kts 263°
2026-04-21 18:07 55.17398 75.62888 30178 ft 367 kts 263°
2026-04-21 18:08 55.17048 75.58471 29686 ft 365 kts 263°
2026-04-21 18:08 55.16702 75.54093 29168 ft 362 kts 263°
2026-04-21 18:08 55.16359 75.49766 28741 ft 357 kts 263°
2026-04-21 18:08 55.16018 75.45489 28309 ft 353 kts 263°
2026-04-21 18:09 55.15679 75.41256 27894 ft 350 kts 263°
2026-04-21 18:09 55.15341 75.37057 27455 ft 347 kts 263°
2026-04-21 18:09 55.15006 75.32903 27037 ft 343 kts 263°
2026-04-21 18:09 55.14672 75.28787 26624 ft 341 kts 263°
2026-04-21 18:10 55.14339 75.24699 26206 ft 339 kts 263°
2026-04-21 18:10 55.14006 75.20631 25800 ft 337 kts 263°
2026-04-21 18:10 55.13673 75.16580 25402 ft 336 kts 263°
2026-04-21 18:10 55.13337 75.12509 25002 ft 343 kts 263°
2026-04-21 18:11 55.12991 75.08319 24555 ft 353 kts 263°
2026-04-21 18:11 55.12638 75.04078 24114 ft 352 kts 263°
2026-04-21 18:11 55.12285 74.99851 23662 ft 351 kts 262°
2026-04-21 18:11 55.11932 74.95651 23195 ft 348 kts 262°
2026-04-21 18:12 55.11580 74.91482 22718 ft 346 kts 262°
2026-04-21 18:12 55.11229 74.87346 22295 ft 342 kts 262°
2026-04-21 18:12 55.10886 74.83317 21874 ft 339 kts 262°
2026-04-21 18:12 55.10540 74.79265 21477 ft 336 kts 262°
2026-04-21 18:13 55.10196 74.75265 21124 ft 331 kts 262°
2026-04-21 18:13 55.09855 74.71301 20732 ft 329 kts 262°
2026-04-21 18:13 55.09514 74.67356 20328 ft 326 kts 262°
2026-04-21 18:13 55.09176 74.63455 19940 ft 324 kts 262°
2026-04-21 18:14 55.08501 74.55721 19170 ft 321 kts 262°
2026-04-21 18:14 55.08165 74.51883 18792 ft 319 kts 262°
2026-04-21 18:14 55.07828 74.48062 18397 ft 318 kts 262°
2026-04-21 18:15 55.07492 74.44254 17991 ft 317 kts 262°
2026-04-21 18:15 55.07155 74.40457 17563 ft 316 kts 262°
2026-04-21 18:15 55.06820 74.36682 17165 ft 314 kts 262°
2026-04-21 18:15 55.06485 74.32933 16785 ft 312 kts 262°
2026-04-21 18:16 55.06151 74.29203 16406 ft 310 kts 261°
2026-04-21 18:16 55.05817 74.25491 16010 ft 309 kts 261°
2026-04-21 18:16 55.05484 74.21796 15635 ft 307 kts 261°
2026-04-21 18:16 55.05152 74.18123 15266 ft 307 kts 261°
2026-04-21 18:17 55.04818 74.14459 14893 ft 305 kts 261°
2026-04-21 18:17 55.04485 74.10805 14523 ft 305 kts 261°
2026-04-21 18:17 55.04362 74.07123 14126 ft 306 kts 275°
2026-04-21 18:17 55.05053 74.03568 13421 ft 319 kts 297°
2026-04-21 18:18 55.06191 74.00225 12887 ft 322 kts 299°
2026-04-21 18:18 55.07338 73.96877 12434 ft 320 kts 296°
2026-04-21 18:18 55.08352 73.93496 12054 ft 317 kts 295°
2026-04-21 18:18 55.09342 73.90065 11681 ft 315 kts 294°
2026-04-21 18:19 55.10333 73.86663 11310 ft 313 kts 294°
2026-04-21 18:19 55.11325 73.83289 10941 ft 311 kts 295°
2026-04-21 18:19 55.12039 73.79781 10567 ft 304 kts 274°
2026-04-21 18:19 55.12055 73.76142 10374 ft 295 kts 266°
2026-04-21 18:20 55.11929 73.72615 10231 ft 287 kts 265°
2026-04-21 18:20 55.11841 73.69183 10110 ft 279 kts 268°
2026-04-21 18:20 55.11830 73.65843 9988 ft 271 kts 269°
2026-04-21 18:20 55.11832 73.62595 9847 ft 264 kts 268°
2026-04-21 18:21 55.11827 73.59438 9592 ft 261 kts 268°
2026-04-21 18:21 55.11811 73.56277 9292 ft 260 kts 268°
2026-04-21 18:21 55.11788 73.53123 9024 ft 258 kts 268°
2026-04-21 18:21 55.11759 73.49999 8758 ft 257 kts 268°
2026-04-21 18:22 55.11727 73.46890 8482 ft 255 kts 268°
2026-04-21 18:22 55.11694 73.43791 8200 ft 254 kts 268°
2026-04-21 18:22 55.11658 73.40713 7944 ft 253 kts 268°
2026-04-21 18:22 55.11621 73.37644 7677 ft 251 kts 267°
2026-04-21 18:23 55.11583 73.34601 7424 ft 250 kts 267°
2026-04-21 18:23 55.11544 73.31553 7156 ft 250 kts 267°
2026-04-21 18:23 55.11505 73.28523 6891 ft 249 kts 266°
2026-04-21 18:23 55.11465 73.25505 6682 ft 246 kts 266°
2026-04-21 18:24 55.11424 73.22530 6477 ft 244 kts 266°
2026-04-21 18:24 55.11381 73.19567 6218 ft 243 kts 266°
2026-04-21 18:24 55.11192 73.16704 5990 ft 239 kts 249°
2026-04-21 18:24 55.10274 73.14337 5745 ft 235 kts 227°
2026-04-21 18:25 55.09154 73.12252 5468 ft 238 kts 227°
2026-04-21 18:25 55.08040 73.10053 5182 ft 245 kts 229°
2026-04-21 18:25 55.06925 73.07776 4918 ft 247 kts 229°
2026-04-21 18:25 55.05802 73.05506 4654 ft 247 kts 228°
2026-04-21 18:26 55.04671 73.03239 4351 ft 248 kts 227°
2026-04-21 18:26 55.03476 73.01076 3994 ft 249 kts 216°
2026-04-21 18:26 55.01892 72.99984 3663 ft 249 kts 184°
2026-04-21 18:26 55.00161 73.00142 3291 ft 250 kts 169°
2026-04-21 18:27 54.98477 73.00827 3057 ft 244 kts 162°
2026-04-21 18:27 54.96883 73.01608 2996 ft 232 kts 165°
2026-04-21 18:27 54.95354 73.02261 2972 ft 219 kts 163°
2026-04-21 18:27 54.94082 73.03508 2962 ft 209 kts 128°
2026-04-21 18:28 54.93656 73.05775 2983 ft 194 kts 94°
2026-04-21 18:28 54.93766 73.08092 2796 ft 192 kts 88°
2026-04-21 18:28 54.93983 73.10320 2617 ft 189 kts 83°
2026-04-21 18:28 54.94272 73.12503 2511 ft 176 kts 81°
2026-04-21 18:29 54.94555 73.14535 2065 ft 175 kts 83°
2026-04-21 18:29 54.94811 73.16489 1929 ft 154 kts 83°
2026-04-21 18:29 54.95031 73.18247 1730 ft 140 kts 83°
2026-04-21 18:29 54.95255 73.19868 1373 ft 136 kts 83°
2026-04-21 18:30 54.95444 73.21409 1242 ft 128 kts 82°
2026-04-21 18:30 54.95647 73.22967 1046 ft 134 kts 81°
2026-04-21 18:30 54.95852 73.24568 917 ft 138 kts 79°
2026-04-21 18:30 54.96071 73.26189 776 ft 139 kts 79°
2026-04-21 18:31 54.96293 73.27882 556 ft 144 kts 77°
2026-04-21 18:31 54.96523 73.29608 360 ft 146 kts 77°
2026-04-21 18:31 54.96738 73.31227 310 ft 127 kts 77°
2026-04-21 18:31 54.96949 73.32842 676 ft 149 kts 78°
2026-04-21 18:32 54.97184 73.34641 1782 ft 156 kts 84°
2026-04-21 18:32 54.97437 73.36617 2568 ft 184 kts 81°
2026-04-21 18:32 54.97753 73.38937 2991 ft 210 kts 82°
2026-04-21 18:32 54.98114 73.41650 2979 ft 248 kts 81°
2026-04-21 18:33 54.98530 73.44695 2998 ft 264 kts 80°
2026-04-21 18:33 54.98949 73.47763 2979 ft 262 kts 80°
2026-04-21 18:33 54.99363 73.50822 2988 ft 258 kts 81°
2026-04-21 18:33 54.99769 73.53850 2999 ft 255 kts 81°
2026-04-21 18:34 55.00170 73.56869 2988 ft 257 kts 81°
2026-04-21 18:34 55.00707 73.59855 2966 ft 264 kts 62°
2026-04-21 18:34 55.02030 73.62091 3021 ft 271 kts 34°
2026-04-21 18:34 55.03815 73.63248 2981 ft 278 kts
2026-04-21 18:35 55.05095 73.63238 3009 ft 280 kts 351°
2026-04-21 18:35 55.07366 73.61152 2984 ft 280 kts 309°
2026-04-21 18:35 55.08403 73.58328 3020 ft 277 kts 294°
2026-04-21 18:35 55.09208 73.55270 2991 ft 277 kts 291°
2026-04-21 18:36 55.09989 73.52189 2993 ft 277 kts 291°
2026-04-21 18:36 55.10770 73.49164 2999 ft 276 kts 292°
2026-04-21 18:36 55.11570 73.46107 3007 ft 277 kts 291°
2026-04-21 18:36 55.12307 73.43008 3013 ft 274 kts 286°
2026-04-21 18:37 55.12811 73.39803 2995 ft 271 kts 276°
2026-04-21 18:37 55.12799 73.36556 2996 ft 266 kts 253°
2026-04-21 18:37 55.12377 73.33416 2977 ft 265 kts 253°
2026-04-21 18:37 55.12082 73.30230 2988 ft 267 kts 260°
2026-04-21 18:38 55.11900 73.27007 3001 ft 266 kts 262°
2026-04-21 18:38 55.11732 73.23782 2971 ft 269 kts 261°
2026-04-21 18:38 55.11556 73.20540 2965 ft 267 kts 261°
2026-04-21 18:38 55.11287 73.17356 2996 ft 263 kts 253°
2026-04-21 18:39 55.10620 73.14432 2981 ft 257 kts 231°
2026-04-21 18:39 55.09412 73.12250 3049 ft 252 kts 218°
2026-04-21 18:39 55.08107 73.10089 2963 ft 258 kts 224°
2026-04-21 18:39 55.06933 73.07804 2994 ft 257 kts 225°
2026-04-21 18:40 55.05759 73.05439 3000 ft 258 kts 226°
2026-04-21 18:40 55.04584 73.03076 2960 ft 257 kts 226°
2026-04-21 18:40 55.03790 73.01523 2975 ft 250 kts 221°
2026-04-21 18:40 55.01817 72.99863 2985 ft 238 kts 179°
2026-04-21 18:41 55.00195 73.00118 2966 ft 231 kts 167°
2026-04-21 18:41 54.98650 73.00750 2938 ft 223 kts 166°
2026-04-21 18:41 54.97194 73.01358 2982 ft 208 kts 165°
2026-04-21 18:41 54.95825 73.01970 2980 ft 200 kts 165°
2026-04-21 18:42 54.94510 73.02636 2983 ft 195 kts 155°
2026-04-21 18:42 54.93767 73.03484 2964 ft 189 kts 134°
2026-04-21 18:42 54.93346 73.05509 2979 ft 180 kts 85°
2026-04-21 18:42 54.93661 73.07641 2828 ft 191 kts 81°
2026-04-21 18:43 54.93958 73.09943 2592 ft 200 kts 84°
2026-04-21 18:43 54.94246 73.12377 2330 ft 211 kts 83°
2026-04-21 18:43 54.94569 73.14822 2026 ft 200 kts 82°
2026-04-21 18:43 54.94986 73.17782 1646 ft 182 kts 81°
2026-04-21 18:44 54.95195 73.19163 1581 ft 167 kts 82°
2026-04-21 18:44 54.95410 73.21071 1257 ft 158 kts 84°
2026-04-21 18:44 54.95620 73.22750 1161 ft 136 kts 81°
2026-04-21 18:44 54.95825 73.24366 933 ft 133 kts 79°
2026-04-21 18:45 54.96040 73.25978 752 ft 139 kts 80°
2026-04-21 18:45 54.96262 73.27648 520 ft 146 kts 78°
2026-04-21 18:45 54.96489 73.29348 348 ft 143 kts 76°
2026-04-21 18:45 54.96700 73.30940 309 ft 124 kts 77°
2026-04-21 18:46 54.96863 73.32155 308 ft 81 kts 76°
2026-04-21 18:46 54.96945 73.32757 303 ft 25 kts 77°
2026-04-21 18:46 54.96920 73.32925 300 ft 13 kts 160°
2026-04-21 18:46 54.96832 73.32961 302 ft 13 kts 167°
2026-04-21 18:47 54.96746 73.32997 302 ft 13 kts 166°
2026-04-21 18:47 54.96661 73.33031 304 ft 12 kts 168°
2026-04-21 18:47 54.96581 73.33022 304 ft 12 kts 220°
2026-04-21 18:47 54.96551 73.32892 302 ft 12 kts 258°
2026-04-21 18:48 54.96534 73.32756 304 ft 11 kts 257°
2026-04-21 18:48 54.96515 73.32616 304 ft 13 kts 257°
2026-04-21 18:48 54.96494 73.32456 305 ft 14 kts 257°
2026-04-21 18:48 54.96469 73.32296 307 ft 13 kts 242°
2026-04-21 18:49 54.96408 73.32241 306 ft 8 kts 185°
2026-04-21 18:49 54.96356 73.32199 307 ft 8 kts 215°
2026-04-21 18:49 54.96326 73.32160 306 ft 8 kts 216°
2026-04-21 18:49 54.96270 73.32082 308 ft 8 kts 237°
2026-04-21 18:50 54.96277 73.31996 307 ft 8 kts 310°
2026-04-21 18:50 54.96306 73.31947 307 ft 3 kts 316°
2026-04-21 18:50 54.96309 73.31941 307 ft 0 kts 317°